Kezdőlap
METAR-TAF:

METAR-TAF

Repülőterek :

Window Rock Airport

Window Rock, Arizona, Amerikai Egyesült Államok

földrajzi szélesség: 35-39N, földrajzi hosszúság: 109-04W, magasság: 2055 m

Jelenlegi meteorológiai megfigyelések

A jelentés 37 perccel ezelõtt készült, 02:53 UTC
Szélcsend
Hőmérséklet 22°C
Páratartalom 50%
Légköri nyomás 1024 hPa
Látótávolság: 16.1 km
Szakadozott felhőzet 11000 lábon

METAR: KRQE 230253Z AUTO 00000KT 10SM BKN110 22/11 A3023 RMK AO2 SLP119 T02170111 55000

Idő: 20:30 (03:30 UTC)


TAF: hiányzik

Meteorológiai megfigyelések és előrejelzések több, mint 4000 repülőtéren (METAR és TAF jelentéseket).

A térképen piros és sárga pontok jelzik az elérhető meteorológiai állomásokat.

Mozgassa az egeret a pont fölött, hogy megjelenjen az állomás neve.

Azután kattintson az időjárási megfigyelések és előrejelzések megtekintéséhez.

A térkép megváltoztatása: kattintson a fekete keresztel jelölt zöld gombra ráközelítéshez, a vonallal jelölt zöld gombra távolításhoz, vagy a zöld nyilakra a szomszédos térképek eléréséhez.


METAR-TAF: